Home   Weather   Mount Isa   Past weeks

Flag for Australia Past Weather in Mount Isa, Queensland, Australia — Yesterday and Last 2 Weeks

Now
73 °F

Passing clouds.


Feels Like: 76 °F
Forecast: 68 / 84 °F
Wind: 9 mph from Southeast

Location: Mount Isa Amo

Current Time: Sep 27, 2016 at 5:10:53 AM

Latest Report: Sep 27, 2016 at 4:30 AM


Visibility: N/A

Pressure: 29.92 "Hg

Humidity: 29%

Dew Point: 39 °F

Location of Mount IsaLocation

Past Weather in Mount Isa — Graph

°F

Mount Isa Temperature Yesterday

Maximum temperature yesterday: 91 °F (at 4:00 PM)
Minimum temperature yesterday: 63 °F (at 4:00 AM)
Average temperature yesterday: 78 °F

High & Low Weather Summary for the Past Weeks

 TemperatureHumidityPressure
High95 °F (Sep 13, 2:00 PM)100% (Sep 18, 4:00 AM)30.12 "Hg (Sep 18, 4:00 AM)
Low48 °F (Sep 12, 6:30 AM)12% (Sep 12, 3:30 PM)29.74 "Hg (Sep 24, 3:30 PM)
Average73 °F59%29.96 "Hg
* Reported Sep 12 4:00 AM — Sep 27 4:00 AM, Mount Isa, Weather by CustomWeather, © 2016

Note: Actual official high and low records may vary slightly from our data, if they occured in-between our weather recording intervals... More about our weather records

Advertising

Mount Isa Weather History for the Previous 24 Hours

Scroll right to see more
 ConditionsComfort  
Time TempWeatherWind HumidityBarometerVisibility
4:00 AM
Tue, Sep 27
73 °FPassing clouds.12 mph29%29.92 "HgN/A
3:00 AM73 °FOvercast.7 mph31%29.92 "HgN/A
2:00 AM72 °FClear.7 mph36%29.95 "HgN/A
1:30 AM72 °FClear.9 mph41%29.95 "HgN/A
1:00 AM72 °FClear.9 mph41%29.95 "HgN/A
12:00 AM73 °FClear.7 mph38%29.98 "HgN/A
11:30 PM
Mon, Sep 26
73 °FClear.6 mph36%29.98 "HgN/A
11:00 PM73 °FClear.5 mph38%29.98 "HgN/A
10:30 PM77 °FClear.6 mph32%29.98 "HgN/A
10:00 PM77 °FClear.7 mph32%29.98 "HgN/A
9:30 PM79 °FPassing clouds.10 mph28%29.98 "HgN/A
9:00 PM79 °FPassing clouds.8 mph28%29.98 "HgN/A
8:00 PM79 °FClear.7 mph32%29.95 "HgN/A
7:00 PM82 °FClear.7 mph28%29.92 "HgN/A
6:30 PM86 °FSunny.7 mph25%29.89 "HgN/A
6:00 PM88 °FSunny.8 mph24%29.89 "HgN/A
5:30 PM90 °FSunny.10 mph22%29.89 "HgN/A
5:00 PM91 °FSunny.9 mph21%29.89 "HgN/A
4:30 PM90 °FSunny.8 mph22%29.86 "HgN/A
4:00 PM91 °FSunny.8 mph21%29.86 "HgN/A
3:30 PM90 °FSunny.8 mph22%29.89 "HgN/A
3:00 PM90 °FSunny.7 mph22%29.89 "HgN/A
2:00 PM90 °FSunny.10 mph22%29.89 "HgN/A
1:30 PM90 °FSunny.8 mph21%29.92 "HgN/A
1:00 PM90 °FSunny.10 mph21%29.92 "HgN/A
12:30 PM88 °FSunny.9 mph22%29.95 "HgN/A
12:00 PM86 °FSunny.10 mph22%29.98 "HgN/A
11:30 AM84 °FSunny.9 mph23%29.98 "HgN/A
11:00 AM82 °FSunny.10 mph23%30.01 "HgN/A
10:30 AM81 °FSunny.13 mph24%30.01 "HgN/A
10:00 AM79 °FSunny.9 mph24%30.01 "HgN/A
9:00 AM75 °FSunny.12 mph29%30.01 "HgN/A
8:30 AM73 °FSunny.12 mph29%30.01 "HgN/A
8:00 AM72 °FSunny.12 mph33%30.01 "HgN/A
7:30 AM70 °FSunny.6 mph38%29.98 "HgN/A
7:00 AM66 °FSunny.6 mph46%29.98 "HgN/A
6:30 AM66 °FSunny.6 mph46%29.95 "HgN/A
6:00 AM64 °FClear.7 mph49%29.95 "HgN/A
5:30 AM66 °FClear.6 mph46%29.92 "HgN/A
5:00 AM66 °FClear.8 mph46%29.92 "HgN/A
Weather by CustomWeather, © 2016

See weather overviewHow to use our weather pages